| time (UTC) | temp F | wind direction | speed MPH | gust MPH | rain 1hr in | rain 24hr in | rain mn in | humidity % | barometer mb |
| 20260902074520 | 54 | 158 | 4.0 | 5.0 | 0.00 | 0.00 | 0.00 | 72 | 1028.0 |
| 20260902073600 | 55 | 153 | 6.0 | 7.0 | 0.00 | 0.00 | 0.00 | 70 | 1028.0 |
| 20260902072540 | 55 | 165 | 6.0 | 8.0 | 0.00 | 0.00 | 0.00 | 69 | 1027.9 |
| 20260902071521 | 56 | 162 | 5.0 | 8.0 | 0.00 | 0.00 | 0.00 | 67 | 1028.0 |
| 20260902070541 | 56 | 178 | 7.0 | 10.0 | 0.00 | 0.00 | 0.00 | 65 | 1027.9 |
| 20260902065538 | 56 | 175 | 7.0 | 10.0 | 0.00 | 0.00 | 0.00 | 65 | 1028.0 |
| 20260902064521 | 56 | 167 | 7.0 | 10.0 | 0.00 | 0.00 | 0.00 | 67 | 1027.9 |
| 20260902063521 | 58 | 183 | 5.0 | 8.0 | 0.00 | 0.00 | 0.00 | 63 | 1027.9 |
| 20260902062522 | 57 | 226 | 5.0 | 7.0 | 0.00 | 0.00 | 0.00 | 62 | 1027.9 |
| 20260902061542 | 56 | 227 | 5.0 | 7.0 | 0.00 | 0.00 | 0.00 | 64 | 1027.9 |
| 20260902060522 | 55 | 190 | 6.0 | 8.0 | 0.00 | 0.00 | 0.00 | 69 | 1027.8 |
| 20260902055516 | 55 | 222 | 5.0 | 7.0 | 0.00 | 0.00 | 0.00 | 65 | 1027.9 |
| 20260902054516 | 52 | 176 | 5.0 | 7.0 | 0.00 | 0.00 | 0.00 | 73 | 1027.9 |
| 20260902053531 | 52 | 151 | 4.0 | 5.0 | 0.00 | 0.00 | 0.00 | 74 | 1027.9 |
| 20260902052523 | 53 | 138 | 4.0 | 6.0 | 0.00 | 0.00 | 0.00 | 73 | 1027.9 |
| 20260902051537 | 53 | 143 | 4.0 | 6.0 | 0.00 | 0.00 | 0.00 | 73 | 1028.0 |
| 20260902050517 | 55 | 106 | 3.0 | 4.0 | 0.00 | 0.00 | 0.00 | 68 | 1028.0 |
| 20260902045552 | 54 | 79 | 4.0 | 5.0 | 0.00 | 0.00 | 0.00 | 69 | 1028.1 |
| 20260902044532 | 56 | 146 | 3.0 | 4.0 | 0.00 | 0.00 | 0.00 | 68 | 1028.1 |
| 20260902043518 | 57 | 141 | 6.0 | 8.0 | 0.00 | 0.00 | 0.00 | 67 | 1028.1 |
| 20260902042516 | 58 | 129 | 3.0 | 4.0 | 0.00 | 0.00 | 0.00 | 64 | 1028.2 |
| 20260902041518 | 59 | 77 | 4.0 | 7.0 | 0.00 | 0.00 | 0.00 | 60 | 1028.2 |
| 20260902040518 | 59 | 87 | 4.0 | 7.0 | 0.00 | 0.00 | 0.00 | 61 | 1028.2 |
| 20260902035518 | 60 | 63 | 5.0 | 8.0 | 0.00 | 0.00 | 0.00 | 60 | 1028.1 |
| 20260902034519 | 60 | 61 | 5.0 | 8.0 | 0.00 | 0.00 | 0.00 | 56 | 1028.0 |
| 20260902033517 | 60 | 89 | 3.0 | 7.0 | 0.00 | 0.00 | 0.00 | 55 | 1027.9 |
| 20260902032537 | 59 | 66 | 5.0 | 7.0 | 0.00 | 0.00 | 0.00 | 56 | 1027.7 |
| 20260902031517 | 58 | 81 | 5.0 | 6.0 | 0.00 | 0.00 | 0.00 | 59 | 1027.9 |
| 20260902030518 | 58 | 92 | 2.0 | 4.0 | 0.00 | 0.00 | 0.00 | 61 | 1027.7 |
| 20260902025517 | 60 | 76 | 4.0 | 5.0 | 0.00 | 0.00 | 0.00 | 58 | 1027.5 |
| 20260902024518 | 61 | 83 | 3.0 | 4.0 | 0.00 | 0.00 | 0.00 | 55 | 1027.4 |
| 20260902023518 | 61 | 78 | 5.0 | 6.0 | 0.00 | 0.00 | 0.00 | 55 | 1027.3 |
| 20260902022518 | 62 | 46 | 3.0 | 4.0 | 0.00 | 0.00 | 0.00 | 53 | 1027.3 |
| 20260902021518 | 63 | 12 | 2.0 | 3.0 | 0.00 | 0.00 | 0.00 | 51 | 1027.2 |
| 20260902020518 | 64 | 344 | 2.0 | 3.0 | 0.00 | 0.00 | 0.00 | 50 | 1027.1 |
| 20260902015519 | 65 | 18 | 3.0 | 6.0 | 0.00 | 0.00 | 0.00 | 50 | 1027.0 |
| 20260902014518 | 66 | 30 | 7.0 | 12.0 | 0.00 | 0.00 | 0.00 | 48 | 1026.8 |
| 20260902013519 | 66 | 39 | 6.0 | 9.0 | 0.00 | 0.00 | 0.00 | 44 | 1026.7 |
| 20260902012520 | 66 | 6 | 2.0 | 4.0 | 0.00 | 0.00 | 0.00 | 47 | 1026.5 |
| 20260902011519 | 66 | 271 | 3.0 | 5.0 | 0.00 | 0.02 | 0.00 | 47 | 1026.4 |
| 20260902010519 | 67 | 243 | 4.0 | 7.0 | 0.00 | 0.02 | 0.00 | 45 | 1026.2 |
| 20260902005520 | 69 | 247 | 3.0 | 6.0 | 0.00 | 0.02 | 0.00 | 42 | 1026.3 |
| 20260902004520 | 69 | 252 | 5.0 | 7.0 | 0.00 | 0.02 | 0.00 | 40 | 1026.2 |
| 20260902003516 | 70 | 262 | 6.0 | 8.0 | 0.00 | 0.02 | 0.00 | 39 | 1026.2 |
| 20260902002539 | 72 | 264 | 7.0 | 10.0 | 0.00 | 0.02 | 0.00 | 38 | 1026.1 |
| 20260902001520 | 73 | 289 | 6.0 | 8.0 | 0.00 | 0.02 | 0.00 | 35 | 1026.1 |
| 20260902000541 | 71 | 284 | 6.0 | 9.0 | 0.00 | 0.02 | 0.00 | 38 | 1026.1 |
| 20260901235521 | 73 | 298 | 5.0 | 8.0 | 0.00 | 0.02 | 0.00 | 34 | 1026.0 |
| 20260901234517 | 74 | 305 | 6.0 | 9.0 | 0.00 | 0.02 | 0.00 | 31 | 1025.9 |
| 20260901233537 | 74 | 337 | 6.0 | 10.0 | 0.00 | 0.02 | 0.00 | 30 | 1025.8 |
| 20260901232517 | 74 | 61 | 5.0 | 9.0 | 0.00 | 0.02 | 0.00 | 33 | 1025.8 |
| 20260901231528 | 74 | 194 | 6.0 | 9.0 | 0.00 | 0.02 | 0.00 | 32 | 1026.0 |
| 20260901230518 | 74 | 246 | 5.0 | 8.0 | 0.00 | 0.02 | 0.00 | 30 | 1026.0 |
| 20260901225517 | 74 | 229 | 5.0 | 9.0 | 0.00 | 0.02 | 0.00 | 31 | 1026.0 |
| 20260901224518 | 74 | 214 | 6.0 | 11.0 | 0.00 | 0.02 | 0.00 | 31 | 1026.1 |
| 20260901223558 | 74 | 201 | 7.0 | 11.0 | 0.00 | 0.02 | 0.00 | 31 | 1026.2 |
| 20260901222518 | 74 | 227 | 6.0 | 11.0 | 0.00 | 0.02 | 0.00 | 30 | 1026.3 |
| 20260901221619 | 73 | 227 | 7.0 | 11.0 | 0.00 | 0.02 | 0.00 | 32 | 1026.5 |
| 20260901220518 | 73 | 240 | 3.0 | 7.0 | 0.00 | 0.02 | 0.00 | 29 | 1026.7 |
| 20260901215519 | 73 | 246 | 6.0 | 9.0 | 0.00 | 0.02 | 0.00 | 29 | 1026.8 |
| 20260901214545 | 73 | 295 | 5.0 | 7.0 | 0.00 | 0.02 | 0.00 | 28 | 1026.9 |
| 20260901213519 | 74 | 314 | 6.0 | 12.0 | 0.00 | 0.02 | 0.00 | 28 | 1027.0 |
| 20260901212536 | 73 | 292 | 6.0 | 10.0 | 0.00 | 0.02 | 0.00 | 28 | 1027.0 |
| 20260901211519 | 74 | 269 | 6.0 | 11.0 | 0.00 | 0.02 | 0.00 | 28 | 1026.9 |
| 20260901210520 | 74 | 314 | 5.0 | 10.0 | 0.00 | 0.02 | 0.00 | 27 | 1027.1 |
| 20260901205520 | 72 | 279 | 3.0 | 9.0 | 0.00 | 0.02 | 0.00 | 27 | 1027.2 |
| 20260901204519 | 72 | 329 | 2.0 | 5.0 | 0.00 | 0.02 | 0.00 | 28 | 1027.4 |
| 20260901203520 | 73 | 214 | 4.0 | 8.0 | 0.00 | 0.02 | 0.00 | 29 | 1027.5 |
| 20260901202518 | 73 | 268 | 7.0 | 11.0 | 0.00 | 0.02 | 0.00 | 29 | 1027.6 |
| 20260901201518 | 72 | 337 | 5.0 | 11.0 | 0.00 | 0.02 | 0.00 | 30 | 1027.7 |
| 20260901200521 | 72 | 30 | 4.0 | 9.0 | 0.00 | 0.02 | 0.00 | 30 | 1027.8 |
| 20260901195521 | 73 | 35 | 4.0 | 7.0 | 0.00 | 0.02 | 0.00 | 30 | 1028.0 |
| 20260901194518 | 73 | 25 | 5.0 | 10.0 | 0.00 | 0.02 | 0.00 | 32 | 1028.0 |
| 20260901193521 | 73 | 202 | 2.0 | 5.0 | 0.00 | 0.02 | 0.00 | 33 | 1028.0 |
| 20260901192519 | 72 | 218 | 7.0 | 13.0 | 0.00 | 0.02 | 0.00 | 33 | 1028.1 |
| 20260901191521 | 71 | 121 | 4.0 | 7.0 | 0.00 | 0.02 | 0.00 | 36 | 1028.4 |
| 20260901190518 | 71 | 186 | 7.0 | 13.0 | 0.00 | 0.02 | 0.00 | 37 | 1028.4 |
| 20260901185542 | 70 | 153 | 5.0 | 8.0 | 0.00 | 0.02 | 0.00 | 38 | 1028.6 |
| 20260901184522 | 69 | 197 | 3.0 | 6.0 | 0.00 | 0.02 | 0.00 | 39 | 1028.7 |
| 20260901183522 | 69 | 171 | 2.0 | 6.0 | 0.00 | 0.02 | 0.00 | 39 | 1028.8 |
| 20260901182516 | 68 | 63 | 3.0 | 5.0 | 0.00 | 0.02 | 0.00 | 42 | 1028.9 |
| 20260901181517 | 69 | 230 | 4.0 | 9.0 | 0.00 | 0.02 | 0.00 | 41 | 1028.9 |
| 20260901180543 | 68 | 179 | 2.0 | 7.0 | 0.00 | 0.02 | 0.00 | 41 | 1029.1 |
| 20260901175523 | 66 | 218 | 4.0 | 9.0 | 0.00 | 0.02 | 0.00 | 44 | 1029.0 |
| 20260901174517 | 66 | 220 | 6.0 | 10.0 | 0.00 | 0.02 | 0.00 | 45 | 1029.1 |
| 20260901173517 | 67 | 235 | 6.0 | 10.0 | 0.00 | 0.02 | 0.00 | 46 | 1029.1 |
| 20260901172518 | 69 | 237 | 7.0 | 11.0 | 0.00 | 0.02 | 0.00 | 44 | 1029.2 |
| 20260901171518 | 68 | 230 | 7.0 | 12.0 | 0.00 | 0.02 | 0.00 | 45 | 1029.3 |
| 20260901170538 | 69 | 231 | 8.0 | 12.0 | 0.00 | 0.02 | 0.00 | 44 | 1029.3 |
| 20260901165518 | 68 | 235 | 7.0 | 13.0 | 0.00 | 0.02 | 0.00 | 46 | 1029.3 |
| 20260901164518 | 68 | 230 | 7.0 | 12.0 | 0.00 | 0.02 | 0.00 | 47 | 1029.4 |
| 20260901163518 | 67 | 212 | 9.0 | 14.0 | 0.00 | 0.02 | 0.00 | 49 | 1029.4 |
| 20260901162519 | 66 | 223 | 8.0 | 13.0 | 0.00 | 0.02 | 0.00 | 51 | 1029.4 |
| 20260901161519 | 66 | 229 | 7.0 | 12.0 | 0.00 | 0.02 | 0.00 | 52 | 1029.5 |
| 20260901160539 | 65 | 230 | 9.0 | 14.0 | 0.00 | 0.02 | 0.00 | 53 | 1029.4 |
| 20260901155539 | 64 | 234 | 7.0 | 11.0 | 0.00 | 0.02 | 0.00 | 55 | 1029.4 |
| 20260901154536 | 64 | 223 | 8.0 | 11.0 | 0.00 | 0.02 | 0.00 | 56 | 1029.3 |
| 20260901153530 | 62 | 199 | 8.0 | 10.0 | 0.00 | 0.02 | 0.00 | 60 | 1029.4 |
| 20260901152530 | 60 | 201 | 8.0 | 9.0 | 0.00 | 0.02 | 0.00 | 66 | 1029.5 |
| 20260901151530 | 0 | 200 | 8.0 | 8.0 | 0.00 | 0.02 | 0.00 | 1029.5 |